Galesburg, IL

12:04 AM CST on February 21, 2018 (GMT -0600)
Galesburg Municipal

Weather History for KGBG - February, 2011

Change the Weather History Date:

Friday, February 25, 2011

  Actual Average Record
Temperature  
Mean Temperature 30 °F -  
Max Temperature 35 °F 37 °F 65 °F (1976)
Min Temperature 24 °F 21 °F -9 °F (1967)
Degree Days  
Heating Degree Days 36    
Moisture  
Dew Point 24 °F    
Average Humidity 80    
Maximum Humidity 93    
Minimum Humidity 65    
Precipitation  
Precipitation 0.00 in - - ()
Sea Level Pressure  
Sea Level Pressure 30.10 in    
Wind  
Wind Speed 11 mph (NW)    
Max Wind Speed 18 mph    
Max Gust Speed 23 mph    
Visibility 6 miles    
Events Snow    
Averages and records for this station are not official NWS values.
T = Trace of Precipitation, MM = Missing Value Source: NWS Daily Summary

Daily Weather History Graph

Daily Weather History Graph

Search for Another Location

Airport or City:

Trip Planner

Search our weather history database for the weather conditions in past years. The results will help you decide how hot, cold, wet, or windy it might be!

Date:

Astronomy

Feb. 25, 2011 Rise Set
Actual Time 6:42 AM CST 5:47 PM CST
Civil Twilight 6:14 AM CST 6:15 PM CST
Nautical Twilight 5:42 AM CST 6:47 PM CST
Astronomical Twilight 5:10 AM CST 7:19 PM CST
Moon 1:47 AM CST (2/25) 11:05 AM CST (2/25)
Length of Visible Light 12h 01m
Length of Day
11h 05m
Last Quarter, 42% of the Moon is Illuminated
Feb 25
Last Quarter
Mar 4
New
Mar 12
First Quarter
Mar 19
Full
Mar 26
Last Quarter

Hourly Weather History & Observations

Time (CST) Temp. Windchill Dew Point Humidity Pressure Visibility Wind Dir Wind Speed Gust Speed Precip Events Conditions
12:05 AM 32.0 °F 21.2 °F 26.6 °F 80% 29.92 in 7.0 mi NNE 16.1 mph - N/A   Overcast
12:25 AM 32.0 °F 21.2 °F 26.6 °F 80% 29.92 in 4.0 mi North 16.1 mph - N/A Snow Light Snow
12:45 AM 30.2 °F 19.3 °F 28.4 °F 93% 29.93 in 1.0 mi North 15.0 mph - N/A Snow Light Snow
1:05 AM 30.2 °F 18.5 °F 28.4 °F 93% 29.93 in 1.5 mi North 17.3 mph - N/A Snow Light Snow
1:25 AM 30.2 °F 18.9 °F 28.4 °F 93% 29.94 in 1.5 mi North 16.1 mph 21.9 mph N/A Snow Light Snow
1:45 AM 30.2 °F 18.5 °F 28.4 °F 93% 29.94 in 1.2 mi North 17.3 mph - N/A Snow Light Snow
2:05 AM 30.2 °F 18.1 °F 28.4 °F 93% 29.95 in 1.8 mi North 18.4 mph 23.0 mph N/A Snow Light Snow
2:25 AM 30.2 °F 20.2 °F 28.4 °F 93% 29.95 in 1.8 mi North 12.7 mph - N/A Snow Light Snow
2:45 AM 30.2 °F 19.3 °F 28.4 °F 93% 29.96 in 3.0 mi North 15.0 mph - N/A Snow Light Snow
3:05 AM 30.2 °F 18.5 °F 26.6 °F 86% 29.96 in 4.0 mi North 17.3 mph - N/A   Overcast
3:25 AM 30.2 °F 19.8 °F 26.6 °F 86% 29.97 in 5.0 mi North 13.8 mph 23.0 mph N/A   Mostly Cloudy
3:45 AM 28.4 °F 18.0 °F 26.6 °F 93% 29.98 in 5.0 mi North 12.7 mph - N/A   Scattered Clouds
4:05 AM 28.4 °F 17.5 °F 26.6 °F 93% 29.98 in 5.0 mi North 13.8 mph - N/A   Clear
4:25 AM 28.4 °F 17.5 °F 26.6 °F 93% 30.01 in 5.0 mi NNW 13.8 mph - N/A   Clear
4:45 AM 28.4 °F 18.0 °F 24.8 °F 86% 30.02 in 5.0 mi NNW 12.7 mph - N/A   Clear
5:05 AM 26.6 °F 17.5 °F 24.8 °F 93% 30.04 in 5.0 mi NNW 9.2 mph - N/A   Clear
5:25 AM 28.4 °F 19.7 °F 24.8 °F 86% 30.05 in 5.0 mi NNW 9.2 mph - N/A   Mostly Cloudy
5:45 AM 28.4 °F 20.4 °F 26.6 °F 93% 30.06 in 5.0 mi NNW 8.1 mph - N/A   Overcast
6:05 AM 28.4 °F 20.4 °F 24.8 °F 86% 30.06 in 5.0 mi NNW 8.1 mph - N/A   Mostly Cloudy
6:25 AM 26.6 °F 19.1 °F 24.8 °F 93% 30.07 in 5.0 mi NW 6.9 mph - N/A   Scattered Clouds
6:45 AM 26.6 °F 19.1 °F 23.0 °F 86% 30.08 in 4.0 mi NNW 6.9 mph - N/A   Clear
7:05 AM 24.8 °F 17.9 °F 21.2 °F 86% 30.07 in 4.0 mi NNW 5.8 mph - N/A   Clear
7:25 AM 24.8 °F 16.9 °F 23.0 °F 93% 30.09 in 5.0 mi NNW 6.9 mph - N/A   Clear
7:45 AM 26.6 °F 22.6 °F 21.2 °F 80% 30.10 in 5.0 mi NNW 3.5 mph - N/A   Clear
8:05 AM 26.6 °F 18.2 °F 23.0 °F 86% 30.10 in 7.0 mi NNW 8.1 mph - N/A   Clear
8:25 AM 28.4 °F 20.4 °F 23.0 °F 80% 30.11 in 7.0 mi NNW 8.1 mph - N/A   Clear
8:45 AM 28.4 °F 19.1 °F 21.2 °F 74% 30.14 in 7.0 mi NW 10.4 mph - N/A   Clear
9:05 AM 28.4 °F 19.7 °F 23.0 °F 80% 30.16 in 7.0 mi NW 9.2 mph - N/A   Clear
9:25 AM 28.4 °F 20.4 °F 21.2 °F 74% 30.16 in 7.0 mi NW 8.1 mph - N/A   Clear
9:45 AM 30.2 °F 22.6 °F 21.2 °F 69% 30.17 in 7.0 mi NW 8.1 mph - N/A   Clear
10:05 AM 30.2 °F 22.6 °F 23.0 °F 75% 30.18 in 10.0 mi NW 8.1 mph - N/A   Clear
10:25 AM 30.2 °F 22.6 °F 23.0 °F 75% 30.18 in 10.0 mi NNW 8.1 mph - N/A   Clear
10:45 AM 32.0 °F 24.8 °F 24.8 °F 75% 30.18 in 10.0 mi North 8.1 mph - N/A   Clear
11:05 AM 33.8 °F 28.6 °F 24.8 °F 70% 30.17 in 10.0 mi North 5.8 mph - N/A   Clear
11:25 AM 33.8 °F 29.6 °F 24.8 °F 70% 30.18 in 10.0 mi NNW 4.6 mph - N/A   Clear
11:45 AM 33.8 °F 29.6 °F 24.8 °F 70% 30.17 in 10.0 mi NW 4.6 mph - N/A   Scattered Clouds
12:05 PM 35.6 °F 31.7 °F 24.8 °F 65% 30.17 in 10.0 mi WNW 4.6 mph - N/A   Scattered Clouds
12:25 PM 35.6 °F 30.7 °F 24.8 °F 65% 30.17 in 10.0 mi WNW 5.8 mph - N/A   Clear
12:45 PM 35.6 °F 29.9 °F 26.6 °F 70% 30.17 in 10.0 mi West 6.9 mph - N/A   Clear
1:05 PM 35.6 °F 29.2 °F 26.6 °F 70% 30.17 in 10.0 mi West 8.1 mph - N/A   Clear
1:25 PM 35.6 °F 29.9 °F 24.8 °F 65% 30.17 in 10.0 mi WNW 6.9 mph - N/A   Scattered Clouds
1:45 PM 35.6 °F 30.7 °F 24.8 °F 65% 30.17 in 10.0 mi West 5.8 mph - N/A   Scattered Clouds
2:05 PM 35.6 °F 29.9 °F 26.6 °F 70% 30.16 in 10.0 mi WNW 6.9 mph - N/A   Clear
2:25 PM 35.6 °F 30.7 °F 24.8 °F 65% 30.15 in 10.0 mi West 5.8 mph - N/A   Scattered Clouds
2:45 PM 35.6 °F 31.7 °F 24.8 °F 65% 30.15 in 10.0 mi WSW 4.6 mph - N/A   Mostly Cloudy
3:05 PM 35.6 °F 31.7 °F 24.8 °F 65% 30.14 in 10.0 mi NW 4.6 mph - N/A   Mostly Cloudy
3:25 PM 35.6 °F 29.2 °F 26.6 °F 70% 30.15 in 10.0 mi NW 8.1 mph - N/A   Overcast
3:45 PM 33.8 °F 28.6 °F 26.6 °F 75% 30.15 in 10.0 mi NW 5.8 mph - N/A   Overcast
4:05 PM 33.8 °F 27.7 °F 26.6 °F 75% 30.14 in 10.0 mi West 6.9 mph - N/A   Overcast
4:25 PM 33.8 °F 27.7 °F 26.6 °F 75% 30.15 in 10.0 mi West 6.9 mph - N/A   Overcast
4:45 PM 33.8 °F 27.0 °F 24.8 °F 70% 30.15 in 10.0 mi WNW 8.1 mph - N/A   Overcast
5:05 PM 32.0 °F 23.6 °F 24.8 °F 75% 30.16 in 10.0 mi NW 10.4 mph - N/A   Overcast
5:25 PM 32.0 °F 22.5 °F 24.8 °F 75% 30.16 in 10.0 mi WNW 12.7 mph - N/A   Overcast
5:45 PM 30.2 °F 22.6 °F 24.8 °F 80% 30.16 in 10.0 mi WNW 8.1 mph - N/A   Mostly Cloudy
6:05 PM 30.2 °F 21.9 °F 24.8 °F 80% 30.17 in 10.0 mi NW 9.2 mph - N/A   Scattered Clouds
6:25 PM 28.4 °F 19.1 °F 21.2 °F 74% 30.17 in 10.0 mi NW 10.4 mph - N/A   Scattered Clouds
6:45 PM 28.4 °F 19.1 °F 21.2 °F 74% 30.17 in 10.0 mi WNW 10.4 mph - N/A   Scattered Clouds
7:05 PM 28.4 °F 20.4 °F 21.2 °F 74% 30.16 in 10.0 mi NW 8.1 mph - N/A   Mostly Cloudy
7:25 PM 28.4 °F 22.2 °F 19.4 °F 69% 30.15 in 10.0 mi NW 5.8 mph - N/A   Overcast
7:45 PM 28.4 °F 22.2 °F 21.2 °F 74% 30.16 in 10.0 mi NW 5.8 mph - N/A   Overcast
8:05 PM 28.4 °F 21.2 °F 21.2 °F 74% 30.16 in 7.0 mi West 6.9 mph - N/A Snow Light Snow
8:25 PM 26.6 °F 20.0 °F 21.2 °F 80% 30.17 in 4.0 mi WNW 5.8 mph - N/A Snow Light Snow
8:45 PM 26.6 °F 19.1 °F 21.2 °F 80% 30.16 in 2.0 mi WNW 6.9 mph - N/A Snow Light Snow
9:05 PM 24.8 °F 16.9 °F 23.0 °F 93% 30.16 in 1.8 mi WNW 6.9 mph - N/A Snow Light Snow
9:45 PM 24.8 °F 17.9 °F 23.0 °F 93% 30.16 in 2.0 mi WNW 5.8 mph - N/A Snow Light Snow
10:05 PM 24.8 °F 16.1 °F 21.2 °F 86% 30.16 in 1.8 mi WNW 8.1 mph - N/A Snow Light Snow
10:25 PM 24.8 °F 20.5 °F 21.2 °F 86% 30.16 in 1.2 mi WNW 3.5 mph - N/A Snow Light Snow
10:45 PM 24.8 °F 19.1 °F 23.0 °F 93% 30.16 in 1.2 mi West 4.6 mph - N/A Snow Light Snow
11:05 PM 24.8 °F 19.1 °F 21.2 °F 86% 30.16 in 1.2 mi West 4.6 mph - N/A Snow Light Snow
11:25 PM 24.8 °F 19.1 °F 21.2 °F 86% 30.15 in 1.2 mi NW 4.6 mph - N/A Snow Light Snow
11:45 PM 24.8 °F 19.1 °F 21.2 °F 86% 30.14 in 1.5 mi WNW 4.6 mph - N/A Snow Light Snow